Weather History for McCook, NE

Change the Weather History Date:

Wednesday, July 31, 2013

  Actual Average Record
Temperature  
Mean Temperature 75 °F 76 °F  
Max Temperature 88 °F 89 °F 107 °F (2002)
Min Temperature 61 °F 62 °F 52 °F (2009)
Cooling Degree Days 8    
Growing Degree Days 23 (Base 50)    
Moisture  
Dew Point 63 °F    
Average Humidity 76    
Maximum Humidity 100    
Minimum Humidity 44    
Precipitation  
Precipitation 0.06 in 0.11 in 1.91 in (1989)
Month to date precipitation 1.69 3.25  
Year to date precipitation 7.68 14.57  
Sea Level Pressure  
Sea Level Pressure 30.14 in    
Wind  
Wind Speed 12 mph (East)    
Max Wind Speed 23 mph    
Max Gust Speed 30 mph    
Visibility 8 miles    
Events Rain , Thunderstorm    
T = Trace of Precipitation, MM = Missing Value Source: NWS Daily Summary

Daily Weather History Graph

Daily Weather History Graph

Search for Another Location

Airport:

Trip Planner

Search our weather history database for the weather conditions in past years. The results will help you decide how hot, cold, wet, or windy it might be!

Date:

Astronomy

Jul. 31, 2013 Rise Set
Actual Time 6:39 AM CDT 8:57 PM CDT
Civil Twilight 6:09 AM CDT 9:27 PM CDT
Nautical Twilight 5:31 AM CDT 10:05 PM CDT
Astronomical Twilight 4:49 AM CDT 10:46 PM CDT
Moon 1:36 AM CDT (7/31) 4:15 PM CDT (7/31)
Length of Visible Light 15h 18m
Length of Day
14h 17m
Waning Crescent, 31% of the Moon is Illuminated
Jul 31
Waning Crescent
Aug 6
New
Aug 14
First Quarter
Aug 20
Full
Aug 28
Last Quarter

Hourly Weather History & Observations

Time (CDT) Temp. Heat Index Dew Point Humidity Pressure Visibility Wind Dir Wind Speed Gust Speed Precip Events Conditions
12:27 AM 69.8 °F - 64.4 °F 83% 30.19 in 9.0 mi NE 23.0 mph 29.9 mph N/A   Scattered Clouds
12:34 AM 69.8 °F - 64.4 °F 83% 30.18 in 8.0 mi ENE 18.4 mph 29.9 mph N/A   Mostly Cloudy
12:53 AM 68.0 °F - 64.0 °F 87% 30.14 in 8.0 mi ENE 16.1 mph - N/A   Scattered Clouds
1:00 AM 68.0 °F - 64.4 °F 88% 30.20 in 8.0 mi ENE 13.8 mph - N/A   Mostly Cloudy
1:07 AM 66.2 °F - 64.4 °F 94% 30.20 in 7.0 mi East 11.5 mph 20.7 mph N/A   Scattered Clouds
2:09 AM 66.2 °F - 64.4 °F 94% 30.29 in 6.0 mi NNW 16.1 mph - N/A Thunderstorm Mostly Cloudy
2:35 AM 66.2 °F - 64.4 °F 94% 30.23 in 3.0 mi SE 11.5 mph - 0.03 in Rain , Thunderstorm Heavy Thunderstorms and Rain
2:53 AM 66.9 °F - 64.9 °F 93% 30.14 in 4.0 mi SSE 9.2 mph - 0.05 in Rain , Thunderstorm Light Rain
3:08 AM 66.2 °F - 64.4 °F 94% 30.16 in 5.0 mi SE 13.8 mph - 0.00 in Rain Light Rain
3:53 AM 66.9 °F - 64.9 °F 93% 30.12 in 7.0 mi South 9.2 mph - 0.01 in   Mostly Cloudy
4:08 AM 66.2 °F - 64.4 °F 94% 30.19 in 6.0 mi East 9.2 mph 20.7 mph N/A   Mostly Cloudy
4:53 AM 64.9 °F - 63.0 °F 93% 30.13 in 8.0 mi Calm Calm - N/A   Partly Cloudy
5:53 AM 63.0 °F - 62.1 °F 97% 30.12 in 4.0 mi Calm Calm - N/A   Clear
6:36 AM 60.8 °F - 60.8 °F 100% 30.18 in 2.0 mi Calm Calm - N/A   Clear
6:49 AM 62.6 °F - 60.8 °F 94% 30.18 in 1.8 mi WSW 5.8 mph - N/A   Clear
6:53 AM 62.1 °F - 61.0 °F 96% 30.11 in 1.8 mi WSW 4.6 mph - N/A   Clear
7:34 AM 64.4 °F - 62.6 °F 94% 30.17 in 2.5 mi West 5.8 mph - N/A   Clear
7:53 AM 64.9 °F - 63.0 °F 93% 30.12 in 3.0 mi Calm Calm - N/A   Clear
8:53 AM 71.1 °F - 64.9 °F 81% 30.13 in 8.0 mi North 5.8 mph - N/A   Clear
9:53 AM 73.0 °F - 64.9 °F 76% 30.17 in 10.0 mi NE 15.0 mph - N/A   Partly Cloudy
10:06 AM 73.4 °F - 64.4 °F 73% 30.23 in 10.0 mi NE 13.8 mph - N/A   Mostly Cloudy
10:53 AM 77.0 °F - 64.0 °F 64% 30.14 in 10.0 mi North 4.6 mph - N/A   Clear
11:53 AM 79.0 °F - 64.0 °F 60% 30.14 in 10.0 mi Variable 4.6 mph - N/A   Clear
12:53 PM 81.0 °F 82.5 °F 64.0 °F 56% 30.14 in 10.0 mi East 6.9 mph - N/A   Clear
1:53 PM 82.0 °F 83.4 °F 64.0 °F 54% 30.13 in 10.0 mi ESE 8.1 mph - N/A   Scattered Clouds
2:53 PM 84.0 °F 85.4 °F 64.0 °F 51% 30.12 in 10.0 mi East 9.2 mph - N/A   Clear
3:53 PM 84.9 °F 85.9 °F 63.0 °F 48% 30.09 in 10.0 mi East 6.9 mph - N/A   Clear
4:53 PM 86.0 °F 86.8 °F 63.0 °F 46% 30.06 in 10.0 mi ENE 6.9 mph - N/A   Clear
5:53 PM 86.0 °F 86.3 °F 62.1 °F 44% 30.06 in 10.0 mi ENE 15.0 mph 20.7 mph N/A   Partly Cloudy
6:53 PM 84.9 °F 85.9 °F 63.0 °F 48% 30.06 in 10.0 mi East 9.2 mph - N/A   Clear
7:53 PM 82.0 °F 83.0 °F 62.1 °F 51% 30.06 in 10.0 mi East 10.4 mph - N/A   Clear
8:53 PM 78.1 °F - 61.0 °F 56% 30.09 in 10.0 mi East 8.1 mph - N/A   Clear
9:53 PM 75.0 °F - 62.1 °F 64% 30.12 in 10.0 mi East 6.9 mph - N/A   Clear
10:53 PM 73.0 °F - 62.1 °F 68% 30.12 in 10.0 mi East 6.9 mph - N/A   Partly Cloudy
11:53 PM 71.1 °F - 62.1 °F 73% 30.11 in 10.0 mi East 5.8 mph - N/A   Clear